Location: Kikino
(54.4440°N, 112.0940°W)
Time: 18:10:33
(UTC+00:00)

A-11 Canister half - Pass Details

Date: 26 May 2024
Orbit: 1525 x 1683 km, 47.3° (Epoch: 12 June)

Event Time Altitude Azimuth Distance (km) Brightness Sun altitude
Rises 09:43:59 0° 283° (WNW) 4,765 11.4 -8.7°
Reaches altitude 10° 09:47:28 10° 274° (W) 3,801 10.8 -8.4°
Maximum altitude 09:55:29 31° 217° (SW) 2,568 9.6 -7.8°
Drops below altitude 10° 10:03:42 10° 161° (SSE) 3,894 10.8 -7.1°
Sets 10:07:21 0° 151° (SSE) 4,897 11.4 -6.7°
